Location: Unspecified
(27.4876°N, 0.0000°E)
Time: 09:26:35
(UTC+00:00)

A-11 Canister half - Visible Passes

Search period start: 04 April 2026 00:00
Search period end: 14 April 2026 00:00
Orbit: 1513 x 1686 km, 47.2° (Epoch: 28 March)

Date Brightness Start Highest point End Pass type
(mag) Time Alt. Az. Time Alt. Az. Time Alt. Az.
4 Apr 11.1 05:15:00 10° SSE 05:20:39 18° ESE 05:26:22 10° E visible
5 Apr 11.1 04:52:40 10° SSE 04:57:41 16° ESE 05:02:45 10° E visible
6 Apr 11.1 04:30:28 10° SSE 04:34:44 14° ESE 04:39:00 10° E visible
7 Apr 11.2 04:08:31 10° SE 04:11:46 12° ESE 04:15:01 10° ESE visible
8 Apr 11.2 03:47:15 10° SE 03:48:48 10° ESE 03:50:21 10° ESE visible
10 Apr 9.7 04:57:37 10° SSW 05:06:28 53° SE 05:15:30 10° ENE visible
11 Apr 9.7 04:34:45 10° SSW 04:43:28 49° SE 04:52:22 10° ENE visible
12 Apr 9.8 04:11:54 10° SSW 04:20:29 45° SE 04:29:12 10° ENE visible
13 Apr 9.8 03:50:18 14° SSW 03:57:30 41° SE 04:06:03 10° ENE visible
